Location: Mahannah Oil Field
(37.4664°N, 96.6003°W)
Time: 00:36:30
(UTC+00:00)

Tiros 1 despin weight - Pass Details

Date: 26 January 2021
Orbit: 593 x 642 km, 48.2° (Epoch: 25 February)

Event Time Altitude Azimuth Distance (km) Brightness Sun altitude
Rises 22:13:28 0° 290° (WNW) 2,884 ? 14.7°
Reaches altitude 10° 22:16:17 10° 306° (NW) 1,969 ? 14.3°
Maximum altitude 22:19:42 21° 356° (N) 1,389 ? 13.7°
Drops below altitude 10° 22:23:05 10° 45° (NE) 1,947 ? 13.2°
Sets 22:25:52 0° 62° (ENE) 2,842 ? 12.7°
